This demonstration page uses our WeatherBlox Daily Observations layout. Learn more.

Left ArrowRight Arrow

Hourly Observations for March 4, 2017

Temp ( °F °C ) Dew Point ( °F °C ) Humidity (%) Winds ( mph kmh ) Pressure ( in mb ) Visibility ( mi km ) Precip ( " mm )
12:52 am 00:52 Clear 46 7.8 29 -1.7 51 51 S 16 26 30.35 1028 10 16 0.00 0.00
1:52 am 01:52 Clear 45 7.2 29 -1.7 54 54 SSE 16 26 30.35 1028 10 16 0.00 0.00
2:52 am 02:52 Clear 43 6.1 29 -1.7 58 58 SSE 15 24 30.35 1028 10 16 0.00 0.00
3:52 am 03:52 Clear 43 6.1 29 -1.7 58 58 SSE 15 24 30.35 1028 10 16 0.00 0.00
4:52 am 04:52 Clear 43 6.1 29 -1.7 58 58 S 13 20 30.36 1028 10 16 0.00 0.00
5:52 am 05:52 Clear 42 5.6 29 -1.7 60 60 SSE 12 19 30.36 1028 10 16 0.00 0.00
6:52 am 06:52 Sunny 42 5.6 29 -1.7 60 60 S 13 20 30.36 1028 10 16 0.00 0.00
7:52 am 07:52 Sunny 45 7.2 30 -1.1 56 56 S 12 19 30.37 1029 10 16 0.00 0.00
8:52 am 08:52 Sunny 51 10.6 30 -1.1 44 44 S 16 26 30.37 1029 10 16 0.00 0.00
9:52 am 09:52 Sunny 57 13.9 31 -0.6 37 37 S 18 30 30.37 1028 10 16 0.00 0.00
10:52 am 10:52 Sunny 63 17.2 30 -1.1 29 29 SSW 24 39 30.35 1028 10 16 0.00 0.00
11:52 am 11:52 Sunny 65 18.3 29 -1.7 26 26 SW 18 30 30.32 1027 10 16 0.00 0.00
12:52 pm 12:52 Sunny 67 19.4 27 -2.8 22 22 SSW 22 35 30.29 1026 10 16 0.00 0.00
1:52 pm 13:52 Sunny 67 19.4 27 -2.8 22 22 SW 16 26 30.26 1025 10 16 0.00 0.00
2:52 pm 14:52 Sunny 67 19.4 28 -2.2 23 23 SSW 20 31 30.22 1024 10 16 0.00 0.00
3:52 pm 15:52 Sunny 66 18.9 29 -1.7 25 25 S 16 26 30.21 1023 10 16 0.00 0.00
4:52 pm 16:52 Sunny 65 18.3 26 -3.3 23 23 S 16 26 30.21 1023 10 16 0.00 0.00
5:52 pm 17:52 Sunny 58 14.4 28 -2.2 32 32 S 8 13 30.23 1024 10 16 0.00 0.00
6:52 pm 18:52 Cloudy 61 16.1 28 -2.2 29 29 S 14 22 30.22 1023 10 16 0.00 0.00
7:52 pm 19:52 Mostly Clear 58 14.4 29 -1.7 33 33 S 12 19 30.21 1023 10 16 0.00 0.00
8:52 pm 20:52 Clear 57 13.9 28 -2.2 33 33 S 9 15 30.20 1023 10 16 0.00 0.00
9:52 pm 21:52 Cloudy 58 14.4 29 -1.7 33 33 S 15 24 30.19 1022 9 14 0.00 0.00
10:52 pm 22:52 Cloudy 58 14.4 30 -1.1 35 35 S 14 22 30.18 1022 7 11 0.00 0.00
11:52 pm 23:52 Cloudy 58 14.4 31 -0.6 36 36 S 14 22 30.17 1022 10 16 0.00 0.00

Powered by AerisWeather